Tracking 31027 objects as of 19-Jul-2025
HD Live streaming from Space Station
objects crossing your sky now

COSMOS 1703

Track COSMOS 1703 now!
10-day predictions
COSMOS 1703 is classified as:


NORAD ID: 16262
Int'l Code: 1985-108A
Perigee: 448.4 km
Apogee: 460.7 km
Inclination: 82.5 °
Period: 93.5 minutes
Semi major axis: 6825 km
RCS: 6.9173 m2 (large)
Launch date: November 22, 1985
Source: Commonwealth of Independent States (former USSR) (CIS)
Launch site: PLESETSK MISSILE AND SPACE COMPLEX (PKMTR)
Your satellite tracking list
FLOCK 3P 17
Track 1 satellite(s)




NASA's NSSDC Master Catalog

Two Line Element Set (TLE):
1 16262U 85108A   25199.47830766  .00011112  00000-0  28127-3 0  9995
2 16262  82.4629 204.5020 0008987 119.3522 240.8622 15.39562664165876
Source of the keplerian elements: AFSPC